Location: Cheyres
(46.8153°N, 6.7877°E)
Time: 14:13:10
(UTC+00:00)

Cosmos 968 Rocket - Pass Details

Date: 11 May 2021
Orbit: 741 x 770 km, 74.0° (Epoch: 20 June)

Event Time Altitude Azimuth Distance (km) Brightness Sun altitude
Rises 19:29:51 0° 206° (SSW) 3,226 6.6 -5.8°
Reaches altitude 10° 19:32:14 10° 209° (SSW) 2,301 5.9 -6.1°
Maximum altitude 19:37:27 72° 293° (WNW) 806 3.9 -6.8°
Drops below altitude 10° 19:42:40 10° 19° (NNE) 2,302 6.2 -7.5°
Sets 19:45:03 0° 21° (NNE) 3,227 7.0 -7.9°
